Weather in Novoturinskiy

Russia / Tyumen Oblast     57°10′23″N   65°52′23″E
temp.,
°C
wind,
m/s
gust,
m/s
humid.,
%
clouds,
%
prec.,
mm/h
press.,
hPa
HPBL,
m
18 may, tue
tue1823:00+18w5127399 0.6 1013410
02:00+16w3771100 0.0 1012160
05:00+16w4978100 0.0 1012249
08:00+19nw466310 0.0 1012491
11:00+23nnw464840 0.1 10131672
14:00+21n885698 0.3 10141202
17:00+17nne8964100 0.4 10161126
20:00+14nne6868100 0.0 10191265
19 may, wed
wed1923:00+11n49774 0.0 1020504
02:00+10n511755 0.0 1022445
05:00+9nne39770 0.0 1023351
08:00+13nne46546 0.0 1024781
11:00+16nne563846 0.0 10241552
14:00+19n46365 0.0 10231890
17:00+19n56355 0.0 10232071
20:00+16ne364799 0.0 1023183
20 may, thu
thu2023:00+12ene375967 0.0 1025175
02:00+10e22625 0.0 102525
05:00+9s226354 0.0 102640
08:00+14sw23457 0.0 1026475
11:00+19w453923 0.0 10241178
14:00+24w67325 0.0 10221835
17:00+25wnw68315 0.0 10211910
20:00+21w37475 0.0 1020109
21 may, fri
fri2123:00+17w37525 0.0 1020103
02:00+15w395816 0.0 1021134
05:00+14w376149 0.0 1021111
08:00+21wnw35455 0.0 1022290
11:00+26w45316 0.0 10211040
14:00+29w452546 0.0 10212022
17:00+29wsw45255 0.0 10202092
20:00+24w48415 0.0 1020154
22 may, sat
sat2223:00+19wsw384939 0.0 1021123
02:00+17wsw375113 0.0 1021119
05:00+16wsw35585 0.0 102279
08:00+21wsw464821 0.0 1022357
11:00+27w45352 0.0 10221168
14:00+29w45280 0.0 10212602
17:00+29wnw45284 0.0 10201985
20:00+24w4104296 0.0 1020262